GW2746 Weather Reports


Display with metric or nautical units.
time (UTC)temp
F
wind
direction
speed
MPH
gust
MPH
rain 1hr
in
rain 24hr
in
rain mn
in
humidity
%
barometer
mb
20260502194637 64 273 2.0 8.0 0.00 0.00 0.00 34 1018.9
20260502194116 64 38 3.0 8.0 0.00 0.00 0.00 34 1019.0
20260502193623 64 190 3.0 11.0 0.00 0.00 0.00 32 1019.1
20260502193121 63 248 4.0 11.0 0.00 0.00 0.00 33 1019.2
20260502192626 63 63 1.0 9.0 0.00 0.00 0.00 33 1019.3
20260502192124 63 359 3.0 8.0 0.00 0.00 0.00 35 1019.3
20260502191629 63 236 4.0 7.0 0.00 0.00 0.00 34 1019.5
20260502191128 63 314 5.0 8.0 0.00 0.00 0.00 36 1019.5
20260502190630 63 324 3.0 8.0 0.00 0.00 0.00 35 1019.6
20260502190133 63 339 3.0 8.0 0.00 0.00 0.00 35 1019.7
20260502185635 62 210 4.0 8.0 0.00 0.00 0.00 38 1019.7
20260502185134 62 237 4.0 8.0 0.00 0.00 0.00 36 1019.8
20260502184618 63 327 3.0 10.0 0.00 0.00 0.00 36 1020.0
20260502184139 62 334 2.0 10.0 0.00 0.00 0.00 37 1020.1
20260502183622 62 267 6.0 9.0 0.00 0.00 0.00 37 1020.2
20260502183119 61 19 2.0 9.0 0.00 0.00 0.00 38 1020.1
20260502182623 61 298 3.0 7.0 0.00 0.00 0.00 38 1020.3
20260502182122 61 285 4.0 7.0 0.00 0.00 0.00 36 1020.4
20260502181650 61 281 3.0 10.0 0.00 0.00 0.00 38 1020.3
20260502181124 61 260 6.0 10.0 0.00 0.00 0.00 38 1020.4
20260502180648 61 229 5.0 10.0 0.00 0.00 0.00 38 1020.4
20260502180127 60 38 4.0 7.0 0.00 0.00 0.00 39 1020.5
20260502170125 58 251 4.0 8.0 0.00 0.00 0.00 40 1021.2
20260502164128 57 323 4.0 7.0 0.00 0.00 0.00 40 1021.3
20260502163635 57 241 2.0 10.0 0.00 0.00 0.00 42 1021.4
20260502163132 57 268 3.0 10.0 0.00 0.00 0.00 41 1021.4
20260502162634 57 290 6.0 10.0 0.00 0.00 0.00 40 1021.4
20260502162130 57 266 3.0 9.0 0.00 0.00 0.00 40 1021.5
20260502161654 57 304 4.0 9.0 0.00 0.00 0.00 39 1021.6
20260502161133 57 295 4.0 7.0 0.00 0.00 0.00 41 1021.6
20260502160617 56 254 4.0 8.0 0.00 0.00 0.00 40 1021.6
20260502160120 56 291 4.0 8.0 0.00 0.00 0.00 41 1021.7
20260502152135 53 227 4.0 7.0 0.00 0.00 0.00 47 1021.9
20260502151618 53 210 1.0 7.0 0.00 0.00 0.00 49 1021.9
20260502151120 53 246 3.0 7.0 0.00 0.00 0.00 49 1021.9
20260502150626 52 296 4.0 6.0 0.00 0.00 0.00 48 1021.8
20260502150126 52 273 3.0 6.0 0.00 0.00 0.00 48 1021.9
20260502130621 40 1 1.0 2.0 0.00 0.00 0.00 73 1022.2
20260502130121 39 25 0.0 2.0 0.00 0.00 0.00 75 1022.1
20260502123626 35 25 0.0 0.0 0.00 0.00 0.00 84 1022.1
20260502123123 35 25 0.0 0.0 0.00 0.00 0.00 86 1022.1
20260502122626 34 25 0.0 0.0 0.00 0.00 0.00 87 1022.1
20260502122125 34 25 0.0 0.0 0.00 0.00 0.00 88 1022.0
20260502121627 33 25 0.0 0.0 0.00 0.00 0.00 88 1022.0
20260502121125 33 25 0.0 0.0 0.00 0.00 0.00 88 1022.0
20260502120634 33 25 0.0 0.0 0.00 0.00 0.00 89 1022.0
20260502120132 33 25 0.0 0.0 0.00 0.00 0.00 89 1022.0
20260502115636 33 25 0.0 0.0 0.00 0.00 0.00 88 1022.0
20260502115154 33 25 0.0 0.0 0.00 0.00 0.00 88 1021.9
20260502114620 33 25 0.0 0.0 0.00 0.00 0.00 88 1021.8
20260502114118 33 25 0.0 0.0 0.00 0.00 0.00 87 1021.9
20260502113624 33 25 0.0 0.0 0.00 0.00 0.00 87 1021.8
20260502113142 33 25 0.0 0.0 0.00 0.00 0.00 88 1021.9
20260502112625 33 25 0.0 0.0 0.00 0.00 0.00 87 1021.8
20260502112125 33 25 0.0 0.0 0.00 0.00 0.00 87 1021.8
20260502111629 33 25 0.0 0.0 0.00 0.00 0.00 86 1021.7
20260502111127 33 25 0.0 0.0 0.00 0.00 0.00 86 1021.7
20260502110633 33 25 0.0 0.0 0.00 0.00 0.00 86 1021.7
20260502110132 33 25 0.0 0.0 0.00 0.00 0.00 87 1021.7
20260502105619 33 25 0.0 0.0 0.00 0.00 0.00 86 1021.7
20260502105118 33 25 0.0 0.0 0.00 0.00 0.00 85 1021.7
20260502104642 33 25 0.0 0.0 0.00 0.00 0.00 85 1021.6
20260502104119 33 25 0.0 0.0 0.00 0.00 0.00 84 1021.6
20260502103643 33 25 0.0 0.0 0.00 0.00 0.00 84 1021.6
20260502103120 33 25 0.0 0.0 0.00 0.00 0.00 84 1021.6
20260502102625 33 25 0.0 0.0 0.00 0.00 0.00 83 1021.5
20260502102124 34 25 0.0 0.0 0.00 0.00 0.00 83 1021.6
20260502101627 34 25 0.0 0.0 0.00 0.00 0.00 83 1021.5
20260502101127 34 25 0.0 0.0 0.00 0.00 0.00 83 1021.4
20260502100634 34 25 0.0 0.0 0.00 0.00 0.00 82 1021.4
20260502100119 34 25 0.0 0.0 0.00 0.00 0.00 83 1021.4
20260502091122 36 25 0.0 1.0 0.00 0.00 0.00 79 1021.3
20260502090629 36 25 0.0 1.0 0.00 0.00 0.00 79 1021.2
20260502090148 36 25 0.0 0.0 0.00 0.00 0.00 79 1021.2
20260502071136 37 25 0.0 0.0 0.00 0.00 0.00 75 1021.2
20260502070640 37 25 0.0 0.0 0.00 0.00 0.00 75 1021.2
20260502070122 37 25 0.0 0.0 0.00 0.00 0.00 74 1021.2
20260502065629 37 25 0.0 0.0 0.00 0.00 0.00 74 1021.2
20260502065129 37 25 0.0 0.0 0.00 0.00 0.00 74 1021.2
20260502064630 38 25 0.0 0.0 0.00 0.00 0.00 74 1021.2
20260502064132 38 25 0.0 0.0 0.00 0.00 0.00 74 1021.3
20260502063635 38 25 0.0 0.0 0.00 0.00 0.00 73 1021.3
20260502063132 38 25 0.0 0.0 0.00 0.00 0.00 72 1021.3
20260502062658 38 25 0.0 0.0 0.00 0.00 0.00 72 1021.2
20260502062133 38 25 0.0 0.0 0.00 0.00 0.00 71 1021.2
20260502061636 39 25 0.0 0.0 0.00 0.00 0.00 70 1021.2
20260502061134 39 25 0.0 0.0 0.00 0.00 0.00 70 1021.2
20260502060617 39 25 0.0 0.0 0.00 0.00 0.00 69 1021.1
20260502060118 39 25 0.0 0.0 0.00 0.00 0.00 69 1021.1
20260502055621 39 25 0.0 0.0 0.00 0.00 0.00 69 1021.0
20260502055121 40 25 0.0 0.0 0.00 0.00 0.00 68 1021.0
20260502054625 40 25 0.0 0.0 0.00 0.00 0.00 68 1021.0
20260502054127 40 25 0.0 0.0 0.00 0.00 0.00 67 1020.9
20260502053634 41 25 0.0 0.0 0.00 0.00 0.00 65 1020.9
20260502053157 41 25 0.0 0.0 0.00 0.00 0.00 64 1020.9
20260502052638 42 25 0.0 0.0 0.00 0.00 0.00 63 1020.9
20260502052119 42 25 0.0 0.0 0.00 0.00 0.00 62 1020.9
20260502051622 42 25 0.0 0.0 0.00 0.00 0.00 61 1020.8
20260502051120 43 25 0.0 0.0 0.00 0.00 0.00 61 1020.9
20260502050625 43 25 0.0 0.0 0.00 0.00 0.00 60 1020.8
20260502050131 43 25 0.0 0.0 0.00 0.00 0.00 60 1020.8
20260502045628 43 25 0.0 0.0 0.00 0.00 0.00 59 1020.7
20260502045128 43 25 0.0 0.0 0.00 0.00 0.00 59 1020.7
20260502044631 43 25 0.0 0.0 0.00 0.00 0.00 59 1020.7
20260502044129 43 25 0.0 0.0 0.00 0.00 0.00 59 1020.6
20260502043632 44 25 0.0 0.0 0.00 0.00 0.00 58 1020.7
20260502043131 44 25 0.0 0.0 0.00 0.00 0.00 58 1020.6
20260502042636 44 25 0.0 0.0 0.00 0.00 0.00 58 1020.7
20260502042134 44 25 0.0 0.0 0.00 0.00 0.00 58 1020.7
20260502041618 44 25 0.0 0.0 0.00 0.00 0.00 57 1020.7
20260502041117 45 25 0.0 0.0 0.00 0.00 0.00 57 1020.6
20260502040624 45 25 0.0 0.0 0.00 0.00 0.00 56 1020.5
20260502040125 45 25 0.0 1.0 0.00 0.00 0.00 55 1020.6
20260502035648 45 25 0.0 1.0 0.00 0.00 0.00 54 1020.5
20260502035125 46 25 0.0 0.0 0.00 0.00 0.00 53 1020.5
20260502034630 46 25 0.0 0.0 0.00 0.00 0.00 53 1020.5
20260502034129 46 25 0.0 0.0 0.00 0.00 0.00 52 1020.6
20260502033619 46 25 0.0 0.0 0.00 0.00 0.00 51 1020.5
20260502033120 47 25 0.0 0.0 0.00 0.00 0.00 50 1020.5
20260502032623 47 25 0.0 1.0 0.00 0.00 0.00 49 1020.5
20260502032121 47 25 0.0 3.0 0.00 0.00 0.00 48 1020.5
20260502031625 47 25 0.0 3.0 0.00 0.00 0.00 47 1020.4
20260502031123 48 44 0.0 1.0 0.00 0.00 0.00 48 1020.4
20260502030627 48 44 0.0 1.0 0.00 0.00 0.00 47 1020.3
20260502030130 48 44 0.0 3.0 0.00 0.00 0.00 47 1020.3
20260502025617 48 44 0.0 3.0 0.00 0.00 0.00 46 1020.2
20260502025154 48 42 0.0 3.0 0.00 0.00 0.00 46 1020.2
20260502024618 49 49 1.0 4.0 0.00 0.00 0.00 46 1020.1
20260502024138 49 357 1.0 4.0 0.00 0.00 0.00 46 1020.0
20260502023624 49 65 0.0 2.0 0.00 0.00 0.00 46 1020.0
20260502023125 49 65 0.0 3.0 0.00 0.00 0.00 45 1019.9
20260502022630 49 65 1.0 3.0 0.00 0.00 0.00 44 1019.9
20260502022129 49 45 0.0 2.0 0.00 0.00 0.00 45 1019.9
20260502021636 50 31 0.0 2.0 0.00 0.00 0.00 45 1019.8
20260502021134 50 31 0.0 3.0 0.00 0.00 0.00 44 1019.7
20260502020617 50 31 1.0 4.0 0.00 0.00 0.00 43 1019.7
20260502020117 50 33 0.0 4.0 0.00 0.00 0.00 43 1019.6
20260502015625 51 72 2.0 3.0 0.00 0.00 0.00 43 1019.6
20260502015141 51 42 0.0 2.0 0.00 0.00 0.00 44 1019.5
20260502014623 51 53 1.0 2.0 0.00 0.00 0.00 43 1019.5
20260502014140 51 53 0.0 4.0 0.00 0.00 0.00 42 1019.4
20260502013622 52 42 1.0 5.0 0.00 0.00 0.00 41 1019.4
20260502013120 52 31 3.0 5.0 0.00 0.00 0.00 41 1019.3
20260502012628 52 45 3.0 5.0 0.00 0.00 0.00 40 1019.3
20260502012126 52 19 1.0 4.0 0.00 0.00 0.00 40 1019.2
20260502011632 53 42 2.0 6.0 0.00 0.00 0.00 40 1019.1
20260502011134 53 42 1.0 6.0 0.00 0.00 0.00 40 1019.0
20260502010658 53 29 1.0 7.0 0.00 0.00 0.00 39 1019.0
20260502010140 53 33 1.0 7.0 0.00 0.00 0.00 39 1019.0
20260502005628 54 40 1.0 5.0 0.00 0.00 0.00 39 1018.9
20260502005150 54 36 3.0 6.0 0.00 0.00 0.00 38 1018.9
20260502004633 54 356 3.0 6.0 0.00 0.00 0.00 38 1018.8
20260502004115 54 14 3.0 7.0 0.00 0.00 0.00 38 1018.8
20260502003624 54 337 3.0 10.0 0.00 0.00 0.00 37 1018.7
20260502003123 55 269 3.0 10.0 0.00 0.00 0.00 38 1018.7
20260502002626 55 24 3.0 11.0 0.00 0.00 0.00 37 1018.6
20260502002126 56 351 3.0 9.0 0.00 0.00 0.00 36 1018.6
20260502001634 56 94 3.0 5.0 0.00 0.00 0.00 36 1018.6
20260502001151 56 32 1.0 9.0 0.00 0.00 0.00 36 1018.6
20260502000634 56 298 3.0 9.0 0.00 0.00 0.00 36 1018.6
20260502000117 56 329 2.0 8.0 0.00 0.00 0.00 37 1018.5
20260501235646 56 70 3.0 8.0 0.00 0.00 0.00 35 1018.5
20260501235122 57 329 3.0 8.0 0.00 0.00 0.00 35 1018.5
20260501234625 57 60 3.0 9.0 0.00 0.00 0.00 35 1018.6
20260501234127 57 71 4.0 9.0 0.00 0.00 0.00 35 1018.5
20260501233635 57 70 5.0 9.0 0.00 0.00 0.00 35 1018.5
20260501233136 57 354 4.0 8.0 0.00 0.00 0.00 35 1018.5
20260501232623 57 307 3.0 9.0 0.00 0.00 0.00 34 1018.5
20260501232123 57 33 3.0 10.0 0.00 0.00 0.00 34 1018.5
20260501231626 58 26 6.0 10.0 0.00 0.00 0.00 34 1018.4
20260501231126 58 350 4.0 9.0 0.00 0.00 0.00 34 1018.4
20260501230633 58 9 2.0 9.0 0.00 0.00 0.00 35 1018.3
20260501230133 58 64 1.0 12.0 0.00 0.00 0.00 36 1018.4
20260501225637 58 310 3.0 12.0 0.00 0.00 0.00 34 1018.3
20260501225137 58 14 4.0 9.0 0.00 0.00 0.00 34 1018.3
20260501224619 58 308 6.0 11.0 0.00 0.00 0.00 34 1018.4
20260501224122 58 2 3.0 8.0 0.00 0.00 0.00 34 1018.3
20260501223631 58 295 3.0 10.0 0.00 0.00 0.00 34 1018.3
20260501223132 58 276 4.0 9.0 0.00 0.00 0.00 33 1018.4
20260501222636 58 312 2.0 9.0 0.00 0.00 0.00 34 1018.3
20260501222120 58 276 4.0 8.0 0.00 0.00 0.00 33 1018.2
20260501221627 58 19 2.0 12.0 0.00 0.00 0.00 34 1018.3
20260501221126 58 27 4.0 12.0 0.00 0.00 0.00 35 1018.3
20260501220629 58 360 6.0 9.0 0.00 0.00 0.00 34 1018.3
20260501220131 58 91 3.0 11.0 0.00 0.00 0.00 34 1018.2
20260501215616 58 58 4.0 11.0 0.00 0.00 0.00 35 1018.2
20260501215119 59 72 4.0 11.0 0.00 0.00 0.00 36 1018.3
20260501214652 58 297 5.0 10.0 0.00 0.00 0.00 35 1018.3
20260501214148 58 318 3.0 12.0 0.00 0.00 0.00 36 1018.2
20260501213650 58 118 6.0 12.0 0.00 0.00 0.00 34 1018.3
20260501213148 58 342 3.0 8.0 0.00 0.00 0.00 36 1018.3
20260501212631 58 19 5.0 12.0 0.00 0.00 0.00 37 1018.3
20260501212129 58 335 7.0 12.0 0.00 0.00 0.00 35 1018.4
20260501211635 58 286 2.0 11.0 0.00 0.00 0.00 36 1018.3
20260501211133 58 270 5.0 11.0 0.00 0.00 0.00 35 1018.4
20260501210657 59 5 4.0 10.0 0.00 0.00 0.00 35 1018.4
20260501210135 58 25 4.0 14.0 0.00 0.00 0.00 37 1018.5
20260501205618 57 266 5.0 14.0 0.00 0.00 0.00 35 1018.5
20260501205135 58 303 3.0 12.0 0.00 0.00 0.00 36 1018.6
20260501204622 58 295 4.0 12.0 0.00 0.00 0.00 36 1018.6
20260501204143 59 360 4.0 14.0 0.00 0.00 0.00 38 1018.6
20260501203626 59 129 6.0 14.0 0.00 0.00 0.00 37 1018.7
20260501203130 59 341 2.0 10.0 0.00 0.00 0.00 39 1018.6
20260501202622 58 19 3.0 10.0 0.00 0.00 0.00 39 1018.5
20260501202122 58 79 3.0 9.0 0.00 0.00 0.00 39 1018.6
20260501201629 59 94 3.0 9.0 0.00 0.00 0.00 38 1018.8
20260501201147 58 289 4.0 12.0 0.00 0.00 0.00 40 1018.7
20260501200630 58 331 2.0 12.0 0.00 0.00 0.00 40 1018.7
20260501200133 57 300 4.0 12.0 0.00 0.00 0.00 39 1018.8
20260501195618 57 320 3.0 9.0 0.00 0.00 0.00 40 1018.8
20260501195117 57 268 4.0 9.0 0.00 0.00 0.00 40 1018.8